Observer details:
352 Konan.  Observer M. Hotta.  0.25-m f/6 reflector + CCD.
367 Yatsuka.  Observer H. Abe.  0.26-m f/6.0 reflector + CCD.
379 Hamamatsu-Yuto.  Observer S. Wakuda.  0.25-m f/5.0 Schmidt-Cassegrain
    + CCD.
467 Auckland Observatory.  Observers G. W. Christie, T. Natusch.  Measurer
    G. W. Christie.  0.40-m f/10 Schmidt-Cassegrain + CCD.
673 Table Mountain Observatory, Wrightwood.  Observer J. Young.  0.61-m f/16
    Cassegrain + CCD.
850 Cordell-Lorenz Observatory, Sewanee.  Observers D. T. Durig, J. M.
    Sherna, K. N. Hatchett, M. H. McManus.  0.30-m f/2.5 Schmidt-Cassegrain
    + CCD.  See also IAUC 8978.
900 Moriyama.  Observer Y. Ikari.  0.26-m f/7.0 reflector + CCD.
D88 Hiratsuka.  Observer Y. Sugiyama.  0.25-m f/5.0 reflector + CCD.
H47 Vicksburg.  Observer C. Bell.  0.3-m f/5.9 Schmidt-Cassegrain + CCD.
J20 Aravaca.  Observer K. W. Wierzchos.  0.20-m Schmidt-Cassegrain + CCD.
J40 Malaga.  Observer J. M. Ruiz M.  0.20-m f/5 Newtonian reflector + CCD.
J47 Observatorio Nazaret.  Observer G. Muler.  0.30-m Schmidt-Cassegrain + CCD.
J79 Observatorio Calarreona, Aguilas.  Observer F. Montalban.  0.25-m f/10
    Schmidt-Cassegrain + CCD.
J87 La Canada.  Observer J. Lacruz.  0.40-m Ritchey-Chretien + CCD.
J95 Great Shefford.  Observer P. Birtwhistle.  0.40-m f/6.0 Schmidt-Cassegrain
    + CCD.

Orbital elements:
 205P/Giacobini A
Epoch 2008 Sept. 11.0 TT = JDT 2454720.5
T 2008 Sept. 10.06550 TT                                MPC
q   1.5263869            (2000.0)            P               Q
n   0.14800643     Peri.  154.23384     +0.89785767     +0.44028253
a   3.5395576      Node   179.63113     -0.43563565     +0.88892757
e   0.5687634      Incl.   15.30348     -0.06382148     +0.12632917
P   6.66
From 363 observations 1896-2008, mean residual 0".8.  Nongravitational
   parameters A1 = +1.19 +/- 0.01, A2 = +0.0277 +/- 0.0002.

Ephemerides:
 205P/Giacobini A
Date    TT    R. A. (2000) Decl.     Delta      r     Elong.  Phase   m1    m2
2008 09 21    20 54.81   -05 24.1    0.645    1.531   135.1    27.6  13.9
2008 10 01    21 12.90   -08 43.0    0.697    1.542   129.5    30.0  14.1
2008 10 11    21 33.38   -11 12.5    0.764    1.560   124.0    32.0  14.3
2008 10 21    21 55.37   -12 49.8    0.845    1.585   118.7    33.4  14.6
2008 10 31    22 18.09   -13 38.1    0.938    1.616   113.6    34.3  14.9
2008 11 10    22 41.01   -13 43.6    1.043    1.652   108.7    34.6  15.3
2008 11 20    23 03.71   -13 14.3    1.158    1.693   103.9    34.5  15.6
2008 11 30    23 25.97   -12 17.7    1.283    1.738    99.2    34.1  15.9

 205P/Giacobini B
Date    TT    R. A. (2000) Decl.     Delta      r     Elong.  Phase   m1    m2
2008 09 21    20 54.73   -05 24.3    0.646    1.531   135.1    27.6  17.9
2008 10 01    21 12.83   -08 43.1    0.698    1.542   129.5    30.1  18.1
2008 10 11    21 33.31   -11 12.6    0.764    1.560   124.0    32.0  18.3
2008 10 21    21 55.30   -12 49.8    0.845    1.585   118.7    33.4  18.6
2008 10 31    22 18.03   -13 38.1    0.938    1.616   113.6    34.3  18.9
2008 11 10    22 40.96   -13 43.6    1.043    1.652   108.7    34.6  19.3
2008 11 20    23 03.66   -13 14.3    1.158    1.693   103.9    34.5  19.6
2008 11 30    23 25.93   -12 17.7    1.283    1.738    99.2    34.1  19.9

 205P/Giacobini C
Date    TT    R. A. (2000) Decl.     Delta      r     Elong.  Phase   m1    m2
2008 09 21    20 54.07   -05 25.3    0.646    1.531   134.9    27.7  18.9
2008 10 01    21 12.21   -08 43.8    0.698    1.542   129.4    30.1  19.1
2008 10 11    21 32.75   -11 13.1    0.765    1.560   123.9    32.1  19.4
2008 10 21    21 54.79   -12 50.3    0.846    1.585   118.6    33.5  19.6
2008 10 31    22 17.57   -13 38.5    0.939    1.615   113.5    34.3  19.9
2008 11 10    22 40.54   -13 44.1    1.043    1.652   108.6    34.6  20.3
2008 11 20    23 03.29   -13 14.8    1.158    1.693   103.8    34.5  20.6
2008 11 30    23 25.59   -12 18.2    1.283    1.738    99.1    34.1  20.9

Brian G. Marsden             (C) Copyright 2008 MPC           M.P.E.C. 2008-S47

Read MPEC 2008-S46 Read MPEC 2008-S48


Our Web policy. Index to the CBAT/MPC/ICQ pages.

